Torna al catalogo

HULIANWANG DIGUI-93

AttivoComunicazioniLEO
NORAD 66001·PAYLOAD·🇨🇳 China

Lanciato Oct 16, 2025 da Wenchang Space Launch Site

Loading…

Prossimi Passaggi (prossime 24 ore)

TLE

AggiornatoSource: Space-Track

Epoca: Sep 14, 2026, 04:51 UTC

1 66001U 25231G   26257.20255315 -.00000104  00000-0  43607-4 0  9991
2 66001  50.0006 216.1767 0000343  40.8370 319.2527 13.29327731 44733

Traccia HULIANWANG DIGUI-93 in tempo reale con AllMySat

Download on the App Store